This is the latest recevied weather packets stored in our database for station/object IK3ZGB. If no packets are shown the sender has not sent any weather packets the latest 1 day(s).
| Time | Temp. | Humidity | Pressure | Rain* | Wind** | Luminosity | Snow |
|---|---|---|---|---|---|---|---|
| 1778093324 | 16.11° C | 82% | 1011.5 hPa | - | - | - | - |
| 1778092124 | 16.67° C | 83% | 1011.4 hPa | - | - | - | - |
| 1778091524 | 16.67° C | 83% | 1011.4 hPa | - | - | - | - |
| 1778089725 | 16.67° C | 83% | 1011.2 hPa | - | - | - | - |
| 1778089125 | 16.67° C | 83% | 1011.4 hPa | - | - | - | - |
| 1778087924 | 17.22° C | 82% | 1011.2 hPa | - | - | - | - |
| 1778086725 | 17.22° C | 82% | 1011 hPa | - | - | - | - |
| 1778086125 | 17.22° C | 82% | 1011.4 hPa | - | - | - | - |
| 1778084324 | 17.22° C | 82% | 1011.3 hPa | - | - | - | - |
| 1778083726 | 17.22° C | 82% | 1011.1 hPa | - | - | - | - |
| 1778081324 | 17.78° C | 83% | 1011.1 hPa | - | - | - | - |
| 1778077125 | 16.67° C | 86% | 1011.8 hPa | - | - | - | - |
| 1778076525 | 16.67° C | 87% | 1011.6 hPa | - | - | - | - |
| 1778075326 | 16.11° C | 88% | 1011.7 hPa | - | - | - | - |
| 1778071125 | 15.56° C | 86% | 1012.4 hPa | - | - | - | - |
| 1778070526 | 15.56° C | 85% | 1012.7 hPa | - | - | - | - |
| 1778067524 | 15.56° C | 83% | 1012.6 hPa | - | - | - | - |
| 1778065125 | 16.11° C | 83% | 1013 hPa | - | - | - | - |
| 1778064526 | 16.11° C | 83% | 1013 hPa | - | - | - | - |
| 1778063924 | 15.56° C | 82% | 1013.2 hPa | - | - | - | - |
| 1778061524 | 16.11° C | 82% | 1013.2 hPa | - | - | - | - |
| 1778059725 | 15.56° C | 82% | 1013.3 hPa | - | - | - | - |
| 1778057325 | 16.11° C | 84% | 1013.1 hPa | - | - | - | - |
| 1778055526 | 15° C | 87% | 1012.7 hPa | - | - | - | - |
| 1778054324 | 13.89° C | 87% | 1012.6 hPa | - | - | - | - |
* Rain since midnight (hover to see other rain measurements)
** Current wind speed in m/s (hover to see current wind gust speed)